Лопатинский

Россия / Московская область     55°20′12″N   38°43′02″E
В апреле 2022 года жителям России запретили посещать сайт meteo.paraplan.net по решению Генеральной прокуратуры. Аудитория сайта уменьшилась в 10 раз. Владельцы сайта не видят смысла в поддержке погодного сервера в таких условиях. Сайт будет закрыт в октябре.
темп.,
°C
ветер,
м/с
пор.,
м/с
влажн.,
%
обл.,
%
осадки,
мм/ч
давл.,
гПа
погр.,
м
25 сентября, вс
вс2500:00+6ю5994100 1.1 998541
03:00+6ю5895100 2.1 999463
06:00+6ююв5896100 0.8 999452
09:00+6ююв4796100 2.8 999414
12:00+7вюв4793100 0.8 1001452
15:00+7всв3694100 0.9 1002440
18:00+7с2394100 0.1 1004168
21:00+7сз2394100 0.1 1005157
26 сентября, пн
пн2600:00+6сз2494100 0.0 1006142
03:00+6зсз2594100 0.0 1007157
06:00+6з3795100 0.0 1007248
09:00+7з4789100 0.0 1008389
12:00+10з5671100 0.0 10091003
15:00+11з5665100 0.2 10091210
18:00+9з4877100 0.2 1010410
21:00+7з3891100 0.2 1011208
27 сентября, вт
вт2700:00+6зюз3593100 0.0 1011105
03:00+6зюз2491100 0.0 101198
06:00+7юз2287100 0.0 101250
09:00+8ююв2378100 0.0 1012205
12:00+11ююв3466100 0.0 1013788
15:00+13ююв3458100 0.1 10121222
18:00+9в357416 0.0 101286
21:00+7в3782100 0.0 1012126
28 сентября, ср
ср2800:00+7в3886100 0.0 1012177
03:00+8всв41179100 0.0 1010409
06:00+8в61286100 0.1 1008550
09:00+8в61396100 3.3 1006617
12:00+9в51198100 2.4 1005435
15:00+10вюв51198100 4.4 1003583
18:00+11вюв51198100 1.8 1003530
21:00+11вюв4998100 2.3 1003477
29 сентября, чт
чт2900:00+11вюв2499100 0.0 1003195
03:00+11ююв229988 0.1 100480
06:00+11юз3798100 0.1 1005275
09:00+11зюз489199 0.1 1008424
12:00+12з5679100 0.1 1011870
15:00+12з4576100 0.1 1013774
18:00+11зсз2378100 0.0 101677
21:00+11сз1177100 0.0 101811